Probability
0 0 0 0 0 0 0 0 0 0 0 0 3 6 3 6 3 3 6 6 13 13 16 16 13 19 16 13 13 19 16 16 13 10 10 10 6 6 6 6 6 6 6 13
0 0 0 0 0 0 0 0 0 0 0 0 3 3 3 6 6 10 13 13 13 13 10 13 16 16 16 13 13 13 13 13 13 10 10 10 6 10 6 6 6 6 6 10
0 0 0 0 0 0 0 0 0 0 0 0 3 3 3 3 3 6 16 13 10 10 16 13 13 13 13 10 13 10 13 13 10 10 10 10 10 6 6 6 6 6 6 6
0 0 0 0 0 0 0 0 0 0 0 0 6 3 3 3 3 3 6 10 6 6 16 10 10 10 13 13 6 10 10 13 10 10 10 10 10 3 3 6 6 6 10 6
0 0 0 0 0 0 0 0 0 0 3 0 3 3 3 3 3 3 6 6 6 0 6 6 6 10 10 13 10 13 10 13 10 10 10 10 6 3 3 3 6 6 10 10
0 0 0 0 0 0 0 0 0 0 3 0 3 3 3 3 3 3 0 0 0 0 6 6 6 6 6 6 6 10 10 13 10 10 10 10 6 3 3 3 6 6 6 10
0 0 0 0 0 0 0 0 0 0 0 3 6 3 3 0 0 0 0 0 0 3 6 6 6 6 3 3 6 6 6 6 13 10 6 6 6 6 3 3 6 6 6 10
0 0 0 0 0 0 0 0 0 0 0 0 0 0 0 0 0 3 3 0 3 3 6 6 6 6 3 3 3 3 3 3 10 3 3 6 6 3 3 3 6 6 6 10
0 0 0 0 0 0 0 0 0 0 0 0 0 0 0 0 0 6 6 3 3 3 6 6 6 6 3 3 3 3 3 3 6 6 3 6 3 3 3 3 3 3 6 6
0 0 0 0 0 0 0 0 0 0 0 0 0 0 0 0 0 3 6 3 3 6 6 6 3 3 3 3 3 3 3 3 0 0 0 3 3 3 3 3 3 3 3 3
0 0 0 0 0 0 0 0 0 0 0 0 0 0 0 0 3 0 3 6 6 6 3 3 3 3 3 3 3 3 3 3 0 0 0 0 0 0 3 3 3 3 3 3
0 0 0 0 0 0 0 0 0 0 0 0 0 0 0 3 0 0 3 3 3 3 3 3 3 3 3 3 3 3 0 0 0 0 0 0 0 0 0 0 0 0 3 3
0 0 0 0 0 0 0 3 3 3 3 3 3 3 3 3 0 3 3 3 3 3 3 3 3 3 0 0 0 0 0 0 0 0 0 0 0 0 0 0 0 0 0 0
0 0 0 0 0 0 3 3 3 3 3 3 3 0 0 0 0 0 0 0 0 0 0 0 0 0 0 0 0 0 0 0 0 0 0 0 0 0 0 0 0 0 0 0
0 0 0 0 0 3 3 3 3 3 3 3 0 0 0 0 0 0 0 0 0 0 0 0 0 0 0 0 0 0 0 0 0 0 0 0 0 0 0 0 0 0 0 0
0 0 0 0 0 0 3 3 3 0 0 0 0 0 0 0 0 0 0 0 0 0 0 0 0 0 0 0 0 0 0 0 0 0 0 0 0 0 0 0 0 0 0 0
0 0 0 0 0 0 0 0 0 0 0 0 0 0 0 0 0 0 0 0 0 0 0 0 0 0 0 0 0 0 0 0 0 0 0 0 0 0 0 0 0 0 0 0
0 0 0 0 0 0 0 0 0 0 0 0 0 0 0 0 0 0 0 0 0 0 0 0 0 0 0 0 0 0 0 0 0 0 0 0 0 0 0 0 0 0 0 0
0 0 0 0 0 0 0 0 0 0 0 0 0 0 0 0 0 0 0 0 0 0 0 0 0 0 0 0 0 0 0 0 0 0 0 0 0 0 0 0 0 0 0 0
0 0 0 0 0 0 0 0 0 0 0 0 0 0 0 0 0 0 0 0 0 0 0 0 0 0 0 0 0 0 0 0 0 0 0 0 0 0 0 0 0 0 0 0
0 0 0 0 0 0 0 0 0 0 0 0 0 0 0 0 0 0 0 0 0 0 0 0 0 0 0 0 0 0 0 0 0 0 0 0 0 0 0 0 0 0 0 0
0 0 0 0 0 0 0 0 0 0 0 0 0 0 0 0 0 0 0 0 0 0 0 0 0 0 0 0 0 0 0 0 0 0 0 0 0 0 0 0 0 0 0 0
0 0 0 0 0 0 0 0 0 0 0 0 0 0 0 0 0 0 0 0 0 0 0 0 0 0 0 0 0 0 0 0 0 0 0 0 0 0 0 0 0 0 0 0
0 0 0 0 0 0 0 0 0 0 0 0 0 0 0 0 0 0 0 0 0 0 0 0 0 0 0 0 0 0 0 0 0 0 0 0 0 0 0 0 0 0 0 0
0 0 0 0 0 0 0 0 0 0 0 0 0 0 0 0 0 0 0 0 0 0 0 0 0 0 0 0 0 0 0 0 0 0 0 0 0 0 0 0 0 0 0 0
0 0 0 0 0 0 0 0 0 0 0 0 0 0 0 0 0 0 0 0 0 0 0 0 0 0 0 0 0 0 0 0 0 0 0 0 0 0 0 0 0 0 0 0
0 0 0 0 0 0 0 0 0 0 0 0 0 0 0 0 0 0 0 0 0 0 0 0 0 0 0 0 0 0 0 0 0 0 0 0 0 0 0 0 0 0 0 0
Height
5774 5776 5778 5780 5782 5783 5785 5787 5789 5792 5793 5796 5797 5798 5799 5800 5801 5801 5801 5801 5801 5801 5801 5801 5801 5802 5803 5803 5803 5804 5804 5805 5805 5804 5804 5804 5804 5804 5805 5805 5805 5804 5804 5804
5767 5769 5771 5772 5774 5776 5778 5780 5782 5784 5786 5788 5790 5791 5792 5793 5794 5794 5795 5795 5795 5795 5795 5795 5795 5795 5796 5796 5797 5797 5797 5798 5798 5797 5797 5797 5797 5797 5797 5798 5798 5798 5798 5797
5760 5762 5763 5765 5768 5769 5771 5773 5775 5776 5780 5781 5782 5784 5785 5786 5787 5788 5788 5788 5788 5789 5789 5788 5788 5789 5789 5789 5789 5790 5790 5791 5791 5791 5790 5790 5790 5790 5790 5790 5790 5791 5791 5791
5753 5755 5756 5761 5761 5763 5764 5765 5767 5769 5771 5773 5774 5776 5777 5779 5780 5780 5781 5782 5782 5782 5781 5781 5781 5781 5781 5782 5782 5782 5783 5784 5784 5783 5783 5782 5782 5782 5782 5782 5782 5783 5784 5784
5746 5747 5749 5752 5754 5755 5757 5759 5760 5762 5764 5765 5767 5768 5770 5771 5772 5772 5773 5774 5775 5775 5774 5774 5774 5773 5773 5774 5774 5775 5776 5776 5776 5775 5775 5775 5775 5775 5775 5775 5776 5776 5776 5776
5738 5740 5742 5746 5747 5748 5750 5751 5753 5754 5756 5757 5759 5761 5763 5763 5764 5765 5765 5766 5767 5767 5767 5767 5766 5766 5766 5766 5766 5767 5767 5768 5767 5767 5767 5768 5767 5767 5767 5768 5769 5769 5769 5769
5732 5733 5735 5738 5739 5741 5743 5745 5746 5747 5748 5750 5751 5753 5755 5755 5756 5757 5758 5758 5759 5759 5760 5760 5760 5759 5759 5759 5759 5759 5759 5760 5760 5760 5760 5760 5760 5760 5760 5760 5760 5761 5761 5761
5725 5726 5731 5731 5732 5734 5735 5737 5738 5739 5741 5742 5743 5745 5746 5747 5748 5749 5750 5750 5751 5751 5752 5752 5752 5752 5752 5752 5752 5752 5752 5752 5752 5752 5752 5752 5752 5752 5752 5752 5752 5752 5752 5752
5719 5722 5722 5723 5725 5726 5728 5729 5730 5732 5733 5734 5735 5737 5738 5739 5739 5740 5741 5742 5743 5743 5744 5744 5744 5744 5744 5745 5744 5744 5744 5744 5744 5744 5744 5744 5744 5744 5744 5744 5744 5744 5744 5744
5712 5714 5715 5716 5718 5719 5721 5722 5723 5724 5725 5727 5728 5729 5730 5730 5731 5732 5733 5734 5734 5735 5735 5735 5736 5736 5736 5736 5737 5736 5736 5736 5736 5736 5736 5736 5736 5736 5736 5736 5736 5736 5736 5736
5704 5706 5708 5709 5711 5712 5714 5715 5716 5717 5718 5719 5720 5721 5721 5722 5722 5723 5724 5725 5726 5726 5727 5727 5727 5728 5728 5728 5728 5728 5728 5728 5728 5728 5729 5729 5729 5729 5729 5729 5728 5728 5728 5728
5697 5699 5700 5702 5703 5704 5706 5707 5708 5709 5710 5711 5712 5713 5713 5714 5714 5715 5716 5716 5717 5718 5718 5719 5719 5720 5720 5720 5720 5720 5720 5720 5720 5720 5721 5721 5721 5721 5721 5721 5721 5721 5721 5721
5689 5690 5691 5693 5695 5696 5697 5699 5700 5701 5702 5703 5704 5704 5705 5706 5706 5707 5708 5708 5708 5709 5709 5710 5711 5711 5711 5712 5712 5712 5712 5712 5712 5712 5713 5713 5713 5713 5713 5714 5713 5713 5713 5713
5680 5681 5683 5684 5686 5687 5689 5690 5692 5693 5694 5695 5696 5697 5697 5698 5698 5699 5699 5700 5700 5700 5701 5701 5702 5702 5702 5703 5703 5703 5704 5704 5704 5704 5704 5705 5705 5705 5705 5705 5706 5705 5705 5705
5673 5673 5674 5675 5677 5679 5680 5682 5683 5685 5686 5687 5688 5689 5689 5690 5690 5691 5691 5692 5692 5692 5692 5693 5693 5693 5693 5694 5694 5695 5696 5696 5696 5696 5696 5697 5697 5697 5697 5697 5697 5697 5697 5697
5666 5666 5667 5667 5669 5670 5672 5673 5674 5676 5677 5678 5679 5680 5681 5681 5682 5683 5683 5684 5684 5684 5685 5684 5685 5685 5685 5685 5686 5686 5687 5688 5688 5688 5688 5689 5689 5689 5689 5689 5689 5689 5689 5689
5658 5659 5659 5660 5661 5662 5663 5664 5665 5667 5668 5670 5671 5672 5672 5673 5674 5675 5675 5676 5676 5676 5677 5677 5677 5677 5677 5677 5677 5678 5679 5679 5680 5680 5680 5681 5681 5681 5681 5681 5681 5681 5681 5680
5652 5652 5652 5653 5653 5654 5655 5656 5657 5659 5660 5661 5662 5663 5664 5665 5666 5666 5667 5667 5668 5668 5669 5668 5669 5669 5669 5669 5669 5670 5670 5671 5671 5672 5672 5672 5672 5673 5673 5673 5673 5673 5672 5672
5646 5646 5646 5646 5647 5648 5648 5649 5650 5651 5652 5654 5655 5656 5656 5657 5658 5658 5659 5659 5660 5660 5661 5660 5661 5661 5661 5661 5662 5662 5662 5663 5663 5663 5664 5664 5664 5664 5664 5664 5664 5664 5664 5664
5640 5640 5640 5641 5641 5642 5642 5643 5644 5644 5646 5647 5647 5648 5649 5650 5650 5651 5651 5652 5652 5652 5653 5653 5653 5653 5653 5653 5654 5654 5654 5654 5655 5655 5656 5656 5656 5656 5656 5656 5655 5655 5655 5655
5635 5635 5635 5635 5636 5636 5636 5637 5638 5638 5639 5640 5641 5641 5642 5643 5643 5644 5644 5645 5646 5646 5646 5646 5646 5646 5645 5646 5646 5646 5646 5646 5647 5647 5647 5647 5647 5647 5647 5647 5647 5647 5647 5647
5631 5630 5630 5630 5630 5630 5631 5631 5632 5633 5633 5634 5634 5635 5635 5636 5637 5637 5638 5639 5639 5639 5639 5639 5639 5639 5638 5638 5638 5638 5638 5638 5639 5639 5639 5639 5639 5639 5639 5639 5639 5639 5639 5639
5626 5626 5625 5625 5625 5625 5626 5626 5626 5627 5628 5628 5629 5629 5629 5630 5631 5631 5632 5632 5632 5633 5633 5632 5632 5632 5631 5631 5630 5630 5630 5631 5631 5631 5631 5631 5631 5631 5631 5631 5631 5631 5631 5630
5622 5621 5621 5621 5620 5620 5621 5621 5621 5622 5622 5622 5623 5623 5624 5625 5625 5625 5626 5626 5626 5626 5626 5626 5625 5625 5624 5624 5623 5623 5623 5623 5623 5623 5623 5623 5624 5624 5624 5623 5623 5623 5623 5622
5617 5616 5616 5616 5616 5616 5616 5616 5616 5617 5617 5617 5617 5617 5618 5618 5619 5619 5620 5620 5620 5620 5620 5619 5619 5618 5618 5617 5616 5616 5616 5616 5616 5616 5616 5616 5616 5616 5616 5616 5615 5615 5614 5614
5612 5612 5611 5611 5611 5611 5611 5611 5611 5611 5611 5611 5612 5612 5612 5612 5613 5613 5613 5614 5614 5614 5614 5613 5613 5612 5611 5610 5610 5609 5609 5609 5609 5609 5609 5608 5608 5608 5608 5608 5608 5607 5607 5607
5607 5607 5607 5606 5606 5606 5606 5606 5606 5606 5606 5607 5607 5607 5607 5607 5607 5607 5608 5608 5608 5608 5608 5607 5607 5606 5605 5604 5604 5603 5603 5603 5603 5602 5602 5602 5602 5601 5601 5601 5600 5600 5600 5599
Wind_Speed
26 26 27 28 28 29 30 30 30 29 28 26 26 25 25 24 24 24 23 23 24 23 22 22 22 22 23 23 23 23 23 23 23 22 21 21 22 22 22 22 21 21 21 21
28 28 28 29 29 29 29 30 30 30 29 27 27 26 26 26 26 26 25 25 25 24 23 24 23 23 24 24 23 23 23 23 24 23 23 23 23 23 23 23 22 22 22 22
28 28 29 29 27 28 29 29 29 30 29 29 28 28 27 26 26 25 25 26 25 24 24 24 24 25 25 25 24 24 24 23 24 24 24 24 23 23 24 24 23 23 23 23
28 29 30 28 27 27 28 28 28 29 29 29 29 28 27 27 27 27 26 25 25 24 25 25 26 26 25 25 26 26 25 25 25 26 26 26 25 24 25 25 24 23 23 23
27 28 28 27 27 27 28 27 27 27 28 28 28 28 27 27 27 28 28 26 26 26 25 24 24 24 25 26 27 27 26 26 27 27 26 26 27 27 26 26 25 25 24 24
27 27 27 26 26 26 27 28 27 27 28 28 28 28 27 27 27 28 28 27 27 27 27 26 25 24 24 25 26 27 27 26 27 26 26 26 27 27 26 25 26 26 26 26
27 27 27 26 25 25 27 26 26 27 28 29 29 29 28 28 28 29 28 28 28 28 27 28 28 27 26 26 26 27 27 26 25 25 25 25 26 26 26 26 26 27 27 27
26 27 26 26 26 26 26 25 26 27 27 28 28 28 29 30 30 30 29 28 29 28 28 28 28 28 27 26 25 25 26 26 25 25 25 25 26 26 26 26 27 27 28 27
27 26 26 26 26 26 26 26 26 26 26 27 27 27 28 29 29 29 29 28 29 29 29 28 28 28 28 27 26 25 25 25 25 25 25 25 25 26 26 26 27 27 26 26
26 26 27 26 26 26 26 25 25 25 26 26 26 27 28 28 28 28 29 29 30 30 30 29 28 27 27 27 26 26 26 25 25 25 25 25 24 24 25 25 26 26 26 25
27 27 28 27 27 27 26 25 25 26 26 25 25 26 27 28 28 29 29 30 30 29 28 28 27 27 26 26 26 26 25 25 26 26 25 24 24 24 24 25 25 25 25 25
27 28 29 28 28 28 27 27 26 26 26 26 27 27 27 26 27 28 28 28 29 29 28 28 27 27 27 26 26 26 26 26 26 25 25 25 25 25 25 25 25 25 25 26
27 28 29 29 29 28 28 27 27 27 27 27 27 27 27 26 26 25 26 27 28 28 29 28 28 27 27 27 26 26 26 26 25 25 25 26 26 26 27 27 27 27 26 27
26 27 27 28 29 29 28 28 28 28 28 27 27 26 27 27 27 27 26 26 26 26 27 27 27 28 28 28 27 26 26 26 26 26 25 26 26 26 27 27 27 27 27 27
24 25 26 27 27 27 28 28 28 28 28 27 27 27 27 27 27 27 26 26 25 25 25 25 26 27 28 28 28 27 26 26 26 25 25 25 25 26 26 26 26 26 27 26
23 24 25 26 26 27 27 27 27 27 27 27 27 26 26 26 27 26 26 25 25 25 25 25 25 25 26 26 26 26 26 26 25 25 25 25 26 26 26 26 25 25 26 26
22 23 24 24 24 25 26 26 26 26 26 25 25 26 26 25 25 25 25 25 25 25 25 25 25 25 25 25 25 25 26 25 25 25 25 25 26 26 26 26 26 25 25 26
20 20 21 22 22 22 24 25 25 24 25 24 24 25 24 24 24 25 24 24 24 25 25 25 25 24 24 24 24 24 25 25 25 25 25 25 26 26 27 26 27 26 26 26
19 19 20 20 21 21 22 23 23 22 22 23 22 23 23 24 24 23 23 23 24 24 24 24 24 24 24 23 23 24 24 24 24 25 25 25 26 26 26 27 27 27 27 26
18 18 18 18 20 21 21 21 20 20 21 22 21 21 22 23 22 22 22 22 22 22 23 23 23 23 23 23 24 23 23 24 24 24 25 25 25 26 26 26 26 26 26 26
16 17 18 18 18 18 18 18 18 18 18 19 20 20 20 20 20 20 21 21 21 21 21 21 22 22 22 23 23 23 23 24 24 24 25 24 24 24 24 24 25 25 25 25
15 16 16 16 16 16 17 18 18 18 18 18 19 18 18 18 19 19 20 20 20 21 21 21 21 21 22 23 23 23 23 24 24 24 24 24 24 24 24 24 24 24 25 25
15 15 15 16 15 15 15 16 17 17 18 18 18 19 19 19 19 19 19 19 20 20 20 21 20 20 21 21 22 22 23 23 23 23 23 23 23 23 23 23 23 24 24 24
15 15 15 15 15 15 15 15 15 16 16 16 16 17 17 18 18 18 18 19 19 19 19 19 19 20 20 20 21 21 21 21 22 22 22 23 23 22 22 23 23 24 24 24
16 16 16 16 16 16 15 15 15 15 16 16 16 16 17 17 17 17 18 18 19 19 19 19 19 19 20 20 20 20 20 20 20 21 21 22 22 22 22 22 22 23 24 24
16 15 15 15 15 15 15 15 15 15 15 15 15 16 17 18 17 18 18 18 18 18 18 18 19 19 19 19 19 19 19 19 20 20 20 20 21 22 22 22 22 23 23 23
14 14 14 14 15 15 15 15 15 14 14 14 14 15 16 16 17 17 18 18 18 18 18 17 17 17 17 17 17 17 17 18 18 18 19 19 20 21 21 22 22 22 23 23
Wind_Direction
244 245 247 249 248 249 250 253 255 257 258 257 257 260 262 264 264 265 264 265 266 266 264 264 263 262 263 264 263 264 264 267 268 270 269 269 270 271 272 273 274 275 277 277
247 247 248 251 249 249 251 254 256 258 258 257 259 259 260 262 264 264 264 264 266 268 266 266 264 262 263 263 263 264 265 267 269 273 270 268 269 270 272 272 273 274 276 278
252 250 250 251 250 251 252 253 254 255 256 258 257 257 259 260 261 262 264 266 268 272 271 269 266 265 265 263 264 266 266 267 269 272 272 271 269 269 270 271 271 272 273 276
254 253 253 253 253 254 254 253 254 254 254 255 257 258 259 260 261 262 264 265 267 270 273 271 267 266 263 262 264 266 267 268 268 270 270 270 271 270 270 270 270 271 271 273
255 256 257 254 254 255 255 255 255 255 255 255 256 258 258 259 261 263 263 263 264 265 269 272 270 267 264 262 263 265 267 268 269 271 270 271 273 274 270 270 271 272 272 272
256 256 255 254 255 257 258 255 253 254 255 254 256 257 258 258 260 261 262 261 261 263 266 272 274 272 272 269 267 267 266 266 268 269 269 270 272 273 272 270 270 272 272 272
255 256 255 255 255 257 258 257 254 254 255 255 256 257 257 258 259 261 262 261 261 263 265 269 273 274 273 272 271 267 264 264 265 265 266 269 270 271 271 270 271 272 272 271
254 255 254 255 255 256 257 257 257 257 257 257 257 258 258 260 261 262 261 262 262 263 265 268 272 273 274 274 274 271 269 266 265 266 267 268 268 268 268 270 271 272 272 272
254 254 255 257 257 257 257 259 260 260 259 257 257 259 260 261 260 260 260 262 263 263 264 267 268 269 271 272 272 272 272 269 267 268 268 268 269 267 267 268 270 271 271 271
256 256 256 258 258 258 260 261 262 260 260 259 261 262 261 261 261 261 263 263 264 265 264 265 267 269 271 272 272 272 271 269 268 269 269 270 270 268 268 269 269 271 270 271
257 257 257 257 258 259 260 261 262 261 261 260 262 262 262 261 259 260 262 262 263 264 265 267 267 268 270 271 272 271 271 270 268 269 270 269 269 269 270 270 271 272 272 271
258 258 257 258 258 259 260 261 261 262 262 263 263 263 265 263 259 259 261 263 264 264 266 267 267 267 269 270 271 270 270 269 268 268 268 268 269 270 270 270 271 274 272 270
259 258 257 257 258 258 259 259 260 260 262 265 265 263 263 262 259 260 261 263 266 266 266 267 267 268 269 269 270 271 270 268 269 268 267 269 269 268 268 268 270 273 273 272
261 260 259 257 258 258 259 259 260 261 262 264 265 264 264 264 264 264 264 265 266 267 268 269 269 269 269 269 269 269 269 268 268 268 267 268 268 267 266 269 270 272 272 273
261 260 259 258 258 258 259 259 258 259 261 261 263 264 264 264 265 264 265 265 266 268 270 271 271 271 270 269 268 267 267 267 267 268 269 269 269 269 268 271 273 272 271 273
260 259 258 259 259 259 260 259 257 257 258 260 261 261 262 263 264 264 266 267 268 269 270 271 272 272 270 268 267 266 266 267 267 268 270 270 269 270 271 270 272 272 271 272
264 261 258 259 260 259 258 259 258 257 256 256 258 259 260 262 264 265 267 268 268 269 269 270 271 271 270 269 267 267 265 265 266 268 270 271 270 269 270 270 270 271 272 274
267 265 262 260 260 260 258 257 257 258 257 256 256 257 259 262 265 265 264 265 266 268 269 269 270 270 269 268 267 267 266 265 266 269 270 270 271 271 271 271 271 271 271 272
269 266 263 262 261 259 257 257 257 257 258 257 257 258 260 262 264 263 262 265 267 268 268 268 269 268 268 268 269 269 268 268 267 268 269 271 272 272 272 272 273 272 270 271
272 266 265 267 265 262 260 258 259 258 257 256 259 261 262 263 263 263 263 264 267 269 269 269 269 267 266 267 268 268 268 268 267 268 268 270 271 271 271 272 273 273 271 271
275 271 268 268 268 266 263 263 263 260 257 258 261 262 263 263 262 262 262 263 266 267 269 271 271 269 268 269 269 268 268 268 268 268 269 269 270 271 272 272 272 271 271 271
278 275 272 271 269 267 265 264 264 262 259 260 260 260 263 263 265 266 265 266 266 267 270 272 272 271 270 269 269 269 268 268 269 268 268 268 269 270 271 271 270 270 270 271
282 278 273 271 270 267 266 265 264 262 261 260 260 261 263 265 267 267 266 267 269 270 272 274 275 273 271 271 271 270 269 269 268 267 267 268 268 269 269 270 270 270 270 270
281 279 276 273 270 269 269 268 265 264 264 262 261 261 262 264 265 266 267 269 271 272 273 273 276 275 273 273 273 272 271 269 268 267 267 266 267 268 270 271 271 271 271 271
278 277 275 273 271 272 272 269 269 268 266 265 263 263 265 266 267 269 270 272 272 274 275 276 277 277 276 276 275 273 272 271 270 270 268 268 268 269 270 272 273 273 273 272
278 279 276 272 271 272 273 271 268 267 265 264 262 263 265 267 268 269 269 271 274 275 277 278 280 280 279 277 276 275 275 274 272 272 272 271 271 271 272 273 274 275 274 273
281 278 275 273 271 273 276 275 271 268 266 266 266 265 265 265 267 269 270 272 274 276 279 283 285 284 282 279 278 278 277 275 274 274 274 275 275 274 274 273 273 274 274 274